Marrakech, Morocco

11:55 AM WET on January 20, 2018 (GMT +0000)
Marrakech

Weather History for GMMX - July, 2013

Change the Weather History Date:

Sunday, July 28, 2013

  Actual Average Record
Temperature  
Mean Temperature 83 °F -  
Max Temperature 99 °F 94 °F 113 °F (2007)
Min Temperature 67 °F 67 °F 32 °F (2007)
Cooling Degree Days 18    
Growing Degree Days 33 (Base 50)    
Moisture  
Dew Point 57 °F    
Average Humidity 43    
Maximum Humidity 73    
Minimum Humidity 14    
Precipitation  
Precipitation 0.00 in 0.00 in - ()
Sea Level Pressure  
Sea Level Pressure 30.05 in    
Wind  
Wind Speed 5 mph ()    
Max Wind Speed 14 mph    
Max Gust Speed 17 mph    
Visibility 6.1 miles    
Events      
Averages and records for this station are not official NWS values.
T = Trace of Precipitation, MM = Missing Value Source: Averaged Metar Reports

Daily Weather History Graph

Daily Weather History Graph

Search for Another Location

Airport or City:

Trip Planner

Search our weather history database for the weather conditions in past years. The results will help you decide how hot, cold, wet, or windy it might be!

Date:

Astronomy

Jul. 28, 2013 Rise Set
Actual Time 5:45 AM WET 7:31 PM WET
Civil Twilight 5:18 AM WET 7:57 PM WET
Nautical Twilight 4:46 AM WET 8:30 PM WET
Astronomical Twilight 4:12 AM WET 9:04 PM WET
Moon 11:14 PM WET (7/28) 11:45 AM WET (7/28)
Length of Visible Light 14h 39m
Length of Day
13h 45m
Waning Gibbous, 63% of the Moon is Illuminated
Jul 28
Waning Gibbous
Jul 29
Last Quarter
Aug 6
New
Aug 14
First Quarter
Aug 21
Full

Hourly Weather History & Observations

Time (WET) Temp. Heat Index Dew Point Humidity Pressure Visibility Wind Dir Wind Speed Gust Speed Precip Events Conditions
12:00 AM 74 °F - 62 °F 57% 29.99 in 6 mi WSW 5.8 mph - -  
12:00 AM 75.2 °F - 62.6 °F 65% 30.06 in - WSW 5.8 mph - N/A   Clear
12:30 AM 73.4 °F - 60.8 °F 65% 30.06 in - WSW 5.8 mph - N/A   Clear
1:00 AM 73.4 °F - 60.8 °F 65% 30.06 in - SW 6.9 mph - N/A   Clear
1:30 AM 71.6 °F - 59.0 °F 64% 30.04 in - SW 6.9 mph - N/A   Clear
2:00 AM 71.6 °F - 59.0 °F 64% 30.04 in - SW 6.9 mph - N/A   Clear
2:30 AM 71.6 °F - 60.8 °F 69% 30.04 in - SW 4.6 mph - N/A   Clear
3:00 AM 71 °F - 60 °F 59% 29.98 in 6 mi SW 3.5 mph - -  
3:00 AM 71.6 °F - 59.0 °F 64% 30.04 in - SW 4.6 mph - N/A   Clear
3:30 AM 71.6 °F - 59.0 °F 64% 30.04 in - WSW 3.5 mph - N/A   Clear
4:00 AM 69.8 °F - 59.0 °F 68% 30.04 in - WSW 3.5 mph - N/A   Clear
4:30 AM 68.0 °F - 59.0 °F 73% 30.04 in - West 3.5 mph - N/A   Clear
5:00 AM 68.0 °F - 59.0 °F 73% 30.04 in - West 3.5 mph - N/A   Clear
5:30 AM 69.8 °F - 60.8 °F 73% 30.04 in - SW 1.2 mph - N/A   Clear
6:00 AM 69 °F - 60 °F 64% 30.01 in 6 mi Calm Calm - -  
6:00 AM 69.8 °F - 59.0 °F 68% 30.06 in - Calm Calm - N/A   Clear
6:30 AM 69.8 °F - 60.8 °F 73% 30.06 in - Variable 1.2 mph - N/A   Clear
7:00 AM 73.4 °F - 60.8 °F 65% 30.06 in - Variable 2.3 mph - N/A   Clear
8:00 AM 75.2 °F - 60.8 °F 61% 30.06 in - East 4.6 mph - N/A   Clear
8:30 AM 78.8 °F - 60.8 °F 54% 30.06 in - NE 3.5 mph - N/A   Clear
9:00 AM 80 °F - 62 °F 44% 29.99 in 6 mi ENE 3.5 mph - -  
9:00 AM 80.6 °F 81.5 °F 60.8 °F 51% 30.06 in - NE 3.5 mph - N/A   Clear
9:30 AM 82.4 °F 83.4 °F 62.6 °F 51% 30.06 in - ENE 4.6 mph - N/A   Clear
10:00 AM 84.2 °F 84.4 °F 60.8 °F 45% 30.06 in 6.2 mi NNE 4.6 mph - N/A   Unknown
10:30 AM 86.0 °F 86.1 °F 60.8 °F 43% 30.06 in - Variable 3.5 mph - N/A   Clear
11:00 AM 87.8 °F 87.1 °F 59.0 °F 38% 30.06 in 6.2 mi Variable 3.5 mph - N/A   Partly Cloudy
11:30 AM 91.4 °F 89.1 °F 53.6 °F 28% 30.06 in 6.2 mi West 3.5 mph - N/A   Partly Cloudy
12:00 PM 92 °F - 56 °F 20% 29.96 in 6 mi NNW 5.8 mph - -   Scattered Clouds
12:00 PM 91.4 °F 89.9 °F 57.2 °F 31% 30.06 in 6.2 mi NW 4.6 mph - N/A   Partly Cloudy
12:30 PM 93.2 °F 91.9 °F 57.2 °F 30% 30.06 in 6.2 mi WNW 5.8 mph - N/A   Partly Cloudy
1:00 PM 93.2 °F 90.8 °F 53.6 °F 26% 30.06 in 6.2 mi Variable 5.8 mph - N/A   Partly Cloudy
1:30 PM 95.0 °F 92.7 °F 53.6 °F 25% 30.06 in 6.2 mi NW 5.8 mph 17.3 mph N/A   Partly Cloudy
2:00 PM 95.0 °F 92.7 °F 53.6 °F 25% 30.06 in 6.2 mi WNW 8.1 mph - N/A   Partly Cloudy
2:30 PM 96.8 °F 95.1 °F 55.4 °F 25% 30.04 in 6.2 mi WNW 8.1 mph - N/A   Partly Cloudy
3:00 PM 97 °F - 52 °F 14% 29.92 in 6 mi NW 8.1 mph - -   Scattered Clouds
3:00 PM 96.8 °F 94.4 °F 53.6 °F 23% 30.04 in 6.2 mi NW 6.9 mph - N/A   Partly Cloudy
3:30 PM 98.6 °F - 51.8 °F 21% 30.04 in 6.2 mi WNW 9.2 mph - N/A   Unknown
4:00 PM 98.6 °F - 51.8 °F 21% 30.04 in 6.2 mi West 11.5 mph - N/A   Partly Cloudy
4:30 PM 98.6 °F - 51.8 °F 21% 30.04 in 6.2 mi West 9.2 mph - N/A   Partly Cloudy
5:00 PM 98.6 °F - 51.8 °F 21% 30.04 in 6.2 mi West 10.4 mph - N/A   Partly Cloudy
5:30 PM 98.6 °F - 51.8 °F 21% 30.04 in 6.2 mi West 9.2 mph - N/A   Partly Cloudy
6:00 PM 98 °F - 53 °F 14% 29.91 in 6 mi West 8.1 mph - -   Scattered Clouds
6:00 PM 98.6 °F 96.4 °F 53.6 °F 22% 30.04 in 6.2 mi Variable 6.9 mph - N/A   Partly Cloudy
6:30 PM 98.6 °F 96.4 °F 53.6 °F 22% 30.04 in 6.2 mi WNW 5.8 mph - N/A   Partly Cloudy
7:00 PM 96.8 °F 94.4 °F 53.6 °F 23% 30.04 in 6.2 mi NW 6.9 mph - N/A   Partly Cloudy
7:30 PM 95.0 °F 92.7 °F 53.6 °F 25% 30.06 in - North 6.9 mph - N/A   Clear
8:00 PM 93.2 °F 90.8 °F 53.6 °F 26% 30.06 in - North 8.1 mph - N/A   Clear
8:30 PM 91.4 °F 89.1 °F 53.6 °F 28% 30.09 in - North 8.1 mph - N/A   Clear
9:00 PM 87 °F - 56 °F 25% 30.00 in 6 mi NNE 13.8 mph - -  
9:00 PM 87.8 °F 86.5 °F 57.2 °F 35% 30.09 in - NNE 12.7 mph - N/A   Clear
9:30 PM 86.0 °F 84.9 °F 57.2 °F 37% 30.09 in - NNE 12.7 mph - N/A   Clear
10:00 PM 84.2 °F 83.0 °F 55.4 °F 37% 30.12 in - NNE 10.4 mph - N/A   Clear
10:30 PM 82.4 °F 81.7 °F 55.4 °F 39% 30.12 in - NNE 8.1 mph - N/A   Clear
11:00 PM 82.4 °F 81.7 °F 55.4 °F 39% 30.12 in - NE 6.9 mph - N/A   Clear
11:30 PM 80.6 °F 80.5 °F 55.4 °F 42% 30.12 in - ENE 3.5 mph - N/A   Clear